Weather History for Huntsville, AL

Change the Weather History Date:

Tuesday, November 29, 2011

  Actual Average Record
Temperature  
Mean Temperature 37 °F 48 °F  
Max Temperature 39 °F 58 °F 76 °F (1970)
Min Temperature 34 °F 38 °F 13 °F (1955)
Degree Days  
Heating Degree Days 28 17  
Month to date heating degree days 314 359  
Since 1 July heating degree days 520 510  
Cooling Degree Days 0 0  
Month to date cooling degree days 11 7  
Year to date cooling degree days 2076 1947  
Moisture  
Dew Point 34 °F    
Average Humidity 86    
Maximum Humidity 92    
Minimum Humidity 79    
Precipitation  
Precipitation 0.16 in 0.20 in 1.15 in (2001)
Month to date precipitation 4.98 4.75  
Year to date precipitation 53.24 48.38  
Snow  
Snow T in - - ()
Month to date snowfall T  
Since 1 July snowfall T  
Since 1 September snowfall T  
Snow Depth 0.00 in    
Sea Level Pressure  
Sea Level Pressure 29.91 in    
Wind  
Wind Speed 10 mph (WSW)    
Max Wind Speed 17 mph    
Max Gust Speed 23 mph    
Visibility 7 miles    
Events Rain , Snow    
T = Trace of Precipitation, MM = Missing Value Source: NWS Daily Summary

Daily Weather History Graph

Daily Weather History Graph

Search for Another Location

Airport:

Trip Planner

Search our weather history database for the weather conditions in past years. The results will help you decide how hot, cold, wet, or windy it might be!

Date:

Astronomy

Nov. 29, 2011 Rise Set
Actual Time 6:33 AM CST 4:36 PM CST
Civil Twilight 6:06 AM CST 5:04 PM CST
Nautical Twilight 5:35 AM CST 5:35 PM CST
Astronomical Twilight 5:04 AM CST 6:05 PM CST
Moon 10:24 AM CST (11/29) 9:24 PM CST (11/29)
Length of Visible Light 10h 57m
Length of Day
10h 02m
Waxing Crescent, 24% of the Moon is Illuminated
Nov 29
Waxing Crescent
Dec 2
First Quarter
Dec 10
Full
Dec 17
Last Quarter
Dec 24
New

Hourly Weather History & Observations

Time (CST) Temp. Windchill Dew Point Humidity Pressure Visibility Wind Dir Wind Speed Gust Speed Precip Events Conditions
12:27 AM 35.6 °F 28.6 °F 33.8 °F 93% 29.79 in 7.0 mi SW 9.2 mph - 0.01 in Rain , Snow Light Rain
12:53 AM 36.0 °F 28.5 °F 34.0 °F 93% 29.80 in 7.0 mi SW 10.4 mph - 0.02 in Rain , Snow Light Rain
1:53 AM 36.0 °F 29.0 °F 34.0 °F 93% 29.80 in 7.0 mi SSW 9.2 mph - 0.02 in Rain , Snow Light Rain
2:53 AM 36.0 °F 29.0 °F 34.0 °F 93% 29.78 in 7.0 mi SSW 9.2 mph - 0.02 in Rain Light Rain
3:02 AM 35.6 °F 28.0 °F 33.8 °F 93% 29.78 in 7.0 mi SSW 10.4 mph - 0.00 in Rain , Snow Light Rain
3:39 AM 35.6 °F 31.7 °F 33.8 °F 93% 29.78 in 6.0 mi SW 4.6 mph - 0.02 in Rain , Snow Light Rain
3:53 AM 35.6 °F 29.9 °F 33.8 °F 93% 29.77 in 5.0 mi SSW 6.9 mph - N/A Rain , Snow Light Snow
4:40 AM 35.6 °F 29.9 °F 33.8 °F 93% 29.77 in 7.0 mi SSW 6.9 mph - 0.01 in Rain , Snow Light Rain
4:53 AM 36.0 °F 29.0 °F 33.1 °F 89% 29.78 in 7.0 mi SW 9.2 mph - 0.02 in Rain , Snow Light Rain
5:26 AM 35.6 °F 28.0 °F 32.0 °F 87% 29.78 in 6.0 mi SW 10.4 mph - 0.02 in Snow Light Snow
5:53 AM 35.1 °F 28.6 °F 32.0 °F 89% 29.79 in 5.0 mi WSW 8.1 mph - 0.02 in Rain , Snow Light Snow
5:57 AM 35.6 °F 29.2 °F 32.0 °F 87% 29.78 in 5.0 mi SW 8.1 mph - 0.01 in Snow Light Snow
6:53 AM 35.1 °F 27.9 °F 32.0 °F 89% 29.80 in 6.0 mi WSW 9.2 mph - 0.02 in   Light Drizzle
7:14 AM 35.6 °F 27.5 °F 32.0 °F 87% 29.81 in 6.0 mi WSW 11.5 mph - 0.00 in   Light Drizzle
7:53 AM 36.0 °F 29.6 °F 33.1 °F 89% 29.83 in 8.0 mi WSW 8.1 mph - 0.00 in   Overcast
8:53 AM 36.0 °F 29.0 °F 33.1 °F 89% 29.84 in 3.0 mi WSW 9.2 mph - 0.00 in Snow Light Snow
9:53 AM 37.0 °F 28.9 °F 33.1 °F 86% 29.86 in 9.0 mi SW 12.7 mph - 0.00 in   Overcast
10:14 AM 35.6 °F 28.0 °F 33.8 °F 93% 29.86 in 5.0 mi SW 10.4 mph - N/A Snow Light Snow
10:42 AM 37.4 °F 30.8 °F 33.8 °F 87% 29.86 in 7.0 mi SSW 9.2 mph - 0.00 in Rain , Snow Light Rain
10:53 AM 37.0 °F 29.8 °F 34.0 °F 89% 29.87 in 7.0 mi SW 10.4 mph - 0.00 in   Light Drizzle
11:10 AM 37.4 °F 31.4 °F 33.8 °F 87% 29.85 in 7.0 mi SW 8.1 mph - N/A   Light Drizzle
11:34 AM 37.4 °F 29.8 °F 33.8 °F 87% 29.86 in 10.0 mi WSW 11.5 mph - 0.00 in   Overcast
11:53 AM 37.9 °F 30.5 °F 34.0 °F 86% 29.86 in 10.0 mi WSW 11.5 mph - 0.00 in   Overcast
12:53 PM 39.0 °F 31.4 °F 34.0 °F 82% 29.88 in 10.0 mi West 12.7 mph - N/A   Overcast
1:24 PM 39.2 °F 32.5 °F 33.8 °F 81% 29.87 in 5.0 mi West 10.4 mph 17.3 mph 0.00 in   Light Drizzle
1:53 PM 37.9 °F 30.0 °F 34.0 °F 86% 29.89 in 10.0 mi West 12.7 mph - 0.00 in   Overcast
2:53 PM 37.9 °F 30.0 °F 34.0 °F 86% 29.92 in 10.0 mi West 12.7 mph 19.6 mph 0.00 in   Overcast
3:53 PM 37.9 °F 30.0 °F 35.1 °F 89% 29.96 in 3.0 mi West 12.7 mph 19.6 mph 0.00 in   Light Drizzle
4:03 PM 37.4 °F 30.3 °F 35.6 °F 93% 29.96 in 3.0 mi West 10.4 mph - 0.00 in   Light Drizzle
4:14 PM 37.4 °F 28.9 °F 35.6 °F 93% 29.96 in 2.0 mi West 13.8 mph 20.7 mph 0.00 in   Light Drizzle
4:19 PM 37.4 °F 29.3 °F 35.6 °F 93% 29.97 in 2.0 mi West 12.7 mph - 0.00 in   Light Drizzle
4:24 PM 37.4 °F 29.8 °F 35.6 °F 93% 29.96 in 2.0 mi WNW 11.5 mph 19.6 mph 0.00 in   Light Drizzle
4:31 PM 37.4 °F 31.4 °F 35.6 °F 93% 29.97 in 2.0 mi WNW 8.1 mph - 0.01 in   Light Drizzle
4:53 PM 37.0 °F 29.3 °F 35.1 °F 93% 29.98 in 3.0 mi WNW 11.5 mph 18.4 mph 0.01 in   Light Drizzle
5:10 PM 37.4 °F 30.8 °F 33.8 °F 87% 29.97 in 4.0 mi WNW 9.2 mph - 0.00 in   Light Drizzle
5:34 PM 37.4 °F 30.3 °F 33.8 °F 87% 29.99 in 5.0 mi WNW 10.4 mph - 0.00 in   Overcast
5:53 PM 37.9 °F 31.5 °F 34.0 °F 86% 30.02 in 10.0 mi WNW 9.2 mph - 0.00 in   Overcast
6:53 PM 37.0 °F 28.9 °F 33.1 °F 86% 30.05 in 9.0 mi WNW 12.7 mph 19.6 mph 0.00 in   Light Drizzle
7:19 PM 37.4 °F 28.9 °F 33.8 °F 87% 30.05 in 9.0 mi WNW 13.8 mph - N/A   Light Drizzle
7:29 PM 37.4 °F 28.9 °F 33.8 °F 87% 30.05 in 9.0 mi WNW 13.8 mph - 0.00 in   Overcast
7:53 PM 37.0 °F 29.3 °F 34.0 °F 89% 30.07 in 7.0 mi WNW 11.5 mph - 0.00 in   Overcast
7:59 PM 37.4 °F 30.8 °F 33.8 °F 87% 30.06 in 6.0 mi WNW 9.2 mph - N/A   Overcast
8:06 PM 37.4 °F 30.8 °F 33.8 °F 87% 30.06 in 6.0 mi WNW 9.2 mph - N/A   Overcast
8:33 PM 37.4 °F 30.8 °F 33.8 °F 87% 30.06 in 6.0 mi WNW 9.2 mph - N/A   Overcast
8:53 PM 37.0 °F 29.8 °F 34.0 °F 89% 30.07 in 8.0 mi WNW 10.4 mph - N/A   Overcast
9:48 PM 37.4 °F 32.1 °F 33.8 °F 87% 30.07 in 10.0 mi West 6.9 mph - N/A   Overcast
9:53 PM 37.0 °F 30.4 °F 34.0 °F 89% 30.08 in 10.0 mi WNW 9.2 mph - N/A   Overcast
10:53 PM 37.0 °F 31.0 °F 34.0 °F 89% 30.09 in 10.0 mi WNW 8.1 mph - N/A   Overcast
11:53 PM 37.9 °F 32.7 °F 35.1 °F 89% 30.07 in 10.0 mi WNW 6.9 mph - N/A   Overcast